Gaylord, MI

8:54 PM EDT on August 16, 2017 (GMT -0400)
Otsego County

Weather History for KGLR - March, 2014

Change the Weather History Date:

Tuesday, March 18, 2014

  Actual Average Record
Temperature  
Mean Temperature 28 °F -  
Max Temperature 39 °F 38 °F 79 °F (2012)
Min Temperature 16 °F 17 °F -10 °F (1959)
Degree Days  
Heating Degree Days 38    
Moisture  
Dew Point 17 °F    
Average Humidity 65    
Maximum Humidity 79    
Minimum Humidity 47    
Precipitation  
Precipitation 0.00 in - - ()
Sea Level Pressure  
Sea Level Pressure 29.99 in    
Wind  
Wind Speed 9 mph (SE)    
Max Wind Speed 13 mph    
Max Gust Speed 17 mph    
Visibility 10 miles    
Events      
Averages and records for this station are not official NWS values.
T = Trace of Precipitation, MM = Missing Value Source: NWS Daily Summary

Daily Weather History Graph

Daily Weather History Graph

Search for Another Location

Airport or City:

Trip Planner

Search our weather history database for the weather conditions in past years. The results will help you decide how hot, cold, wet, or windy it might be!

Date:

Astronomy

Mar. 18, 2014 Rise Set
Actual Time 7:45 AM EDT 7:48 PM EDT
Civil Twilight 7:16 AM EDT 8:18 PM EDT
Nautical Twilight 6:42 AM EDT 8:52 PM EDT
Astronomical Twilight 6:07 AM EDT 9:27 PM EDT
Moon 10:12 PM EDT (3/18) 8:28 AM EDT (3/18)
Length of Visible Light 13h 01m
Length of Day
12h 03m
Waning Gibbous, 96% of the Moon is Illuminated
Mar 18
Waning Gibbous
Mar 23
Last Quarter
Mar 30
New
Apr 7
First Quarter
Apr 15
Full

Hourly Weather History & Observations

Time (EDT) Temp. Windchill Dew Point Humidity Pressure Visibility Wind Dir Wind Speed Gust Speed Precip Events Conditions
12:53 AM 18.0 °F 4.8 °F 6.1 °F 60% 29.97 in 10.0 mi SE 12.7 mph - N/A   Overcast
1:53 AM 18.0 °F 6.1 °F 7.0 °F 62% 29.97 in 10.0 mi SE 10.4 mph - N/A   Overcast
2:53 AM 18.0 °F 6.1 °F 9.0 °F 68% 29.99 in 10.0 mi SE 10.4 mph - N/A   Overcast
3:53 AM 18.0 °F 7.7 °F 10.0 °F 71% 29.98 in 10.0 mi SSE 8.1 mph - N/A   Overcast
4:53 AM 19.0 °F 12.3 °F 10.9 °F 71% 29.99 in 10.0 mi SE 4.6 mph - N/A   Overcast
5:53 AM 18.0 °F 9.8 °F 10.9 °F 74% 29.99 in 10.0 mi SE 5.8 mph - N/A   Scattered Clouds
6:53 AM 16.0 °F 10.4 °F 10.0 °F 77% 29.99 in 10.0 mi SSE 3.5 mph - N/A   Partly Cloudy
7:53 AM 17.1 °F 7.6 °F 10.9 °F 77% 30.01 in 10.0 mi SSE 6.9 mph - N/A   Mostly Cloudy
8:53 AM 18.0 °F 6.9 °F 12.0 °F 78% 30.01 in 10.0 mi SSE 9.2 mph - N/A   Clear
9:53 AM 19.9 °F 10.1 °F 12.9 °F 74% 30.03 in 10.0 mi South 8.1 mph - N/A   Clear
10:53 AM 24.1 °F 14.4 °F 14.0 °F 65% 30.02 in 10.0 mi SSE 9.2 mph - N/A   Clear
11:53 AM 28.0 °F 20.0 °F 16.0 °F 61% 30.02 in 10.0 mi SE 8.1 mph - N/A   Clear
12:53 PM 30.9 °F 22.2 °F 19.0 °F 61% 30.02 in 10.0 mi SSE 10.4 mph - N/A   Clear
1:53 PM 35.1 °F 26.9 °F 21.0 °F 57% 30.02 in 10.0 mi South 11.5 mph - N/A   Clear
2:53 PM 37.9 °F 30.5 °F 21.9 °F 53% 30.01 in 10.0 mi SE 11.5 mph 17.3 mph N/A   Clear
3:53 PM 39.9 °F 33.4 °F 21.0 °F 47% 29.99 in 10.0 mi SSE 10.4 mph - N/A   Clear
4:53 PM 39.9 °F 33.9 °F 21.9 °F 49% 29.99 in 10.0 mi SSE 9.2 mph - N/A   Clear
5:53 PM 39.9 °F 32.9 °F 23.0 °F 51% 29.97 in 10.0 mi SE 11.5 mph - N/A   Clear
6:53 PM 37.9 °F 30.9 °F 24.1 °F 57% 29.96 in 10.0 mi SE 10.4 mph 16.1 mph N/A   Clear
7:53 PM 37.0 °F 29.8 °F 25.0 °F 62% 29.97 in 10.0 mi SE 10.4 mph - N/A   Clear
8:53 PM 35.1 °F 27.4 °F 25.0 °F 67% 29.97 in 10.0 mi ESE 10.4 mph - N/A   Partly Cloudy
9:53 PM 33.1 °F 28.7 °F 25.0 °F 72% 29.96 in 10.0 mi East 4.6 mph - N/A   Overcast
10:53 PM 30.9 °F 27.5 °F 25.0 °F 79% 29.96 in 10.0 mi Variable 3.5 mph - N/A   Overcast
11:53 PM 30.9 °F 26.2 °F 25.0 °F 79% 29.97 in 10.0 mi ENE 4.6 mph - N/A   Clear